Hourly Data Report for January 21, 2001

SHERBROOKE A
QUEBEC

45°26'00.000" N
71°41'00.000" W
241.40 m
7028124
71610
YSC

Download Data

Hourly Data (January 2001)
Hourly Data Report for January 21, 2001
TIME
LST
Temp Definition
°C
Dew Point Definition
°C
Rel Hum Definition
%
Precip. Amount Definition
mm

Wind Dir Definition
10's deg

Wind Spd Definition
km/h
Visibility Definition
km
Stn Press Definition
kPa
Hmdx Definition


Wind Chill Definition


Weather Definition


00:00 -24.6 -29.0 67     0 15.0 98.62      
01:00 -26.2 -30.4 68   1 6 15.0 98.59   -32  
02:00 -27.4 -31.4 69   4 6 15.0 98.55   -34  
03:00 -26.3 -30.4 68   35 4 15.0 98.52   -30  
04:00 -26.3 -30.3 69   35 9 15.0 98.39   -34  
05:00 -24.2 -28.0 71   35 4 15.0 98.32   -28  
06:00 -24.9 -29.1 68   28 4 15.0 98.39   -29  
07:00 -23.4 -27.4 70   18 4 15.0 98.42   -27  
08:00 -22.8 -26.6 71   30 6 19.3 98.49   -28 Mostly Cloudy
09:00 -20.5 -23.9 74   26 4 19.3 98.52   -24 Mostly Cloudy
10:00 -19.0 -22.1 76     0 19.3 98.55     Cloudy
11:00 -17.3 -20.6 75   25 15 19.3 98.55   -26 Cloudy
12:00 -16.7 -20.3 74   27 17 19.3 98.55   -26 Mostly Cloudy
13:00 -15.4 -20.2 67   25 11 24.1 98.59   -22 Cloudy
14:00 -14.1 -18.9 67   27 15 9.7 98.59   -22 Snow
15:00 -12.6 -17.1 69   26 13 9.7 98.65   -19 Snow
16:00 -12.3 -16.8 69   23 7 16.1 98.75   -17 Snow
17:00 -12.3 -15.6 76   26 11 8.0 98.82   -18 Snow Showers
18:00 -12.5 -15.0 82   27 9 6.4 98.92   -18 Snow
19:00 -12.8 -14.9 84     0 4.8 98.98     Snow
20:00 -13.4 -15.3 86   20 4 11.3 99.05   -16 Snow
21:00 -13.2 -15.2 85   20 6 4.8 99.12   -17 Snow
22:00 -12.8 -14.7 86   20 4 6.4 99.18   -15 Snow
23:00 -12.5 -14.5 85   22 4 11.3 99.25   -15 Snow

Notes on Data Quality.

Legend

  • E = Estimated
  • M = Missing
  • NA = Not Available*
  • [empty] = Indicates an unobserved value
Date modified: